Volver al catálogo

STARLINK-3652

ActivoComunicacionesVLEO
NORAD 51991·PAYLOAD·🇺🇸 United States

Lanzado Mar 9, 2022 desde Cape Canaveral Space Force Station

Loading…

Próximos Pases (próximas 24 horas)

TLE

ActualizadoSource: CelesTrak SupGP

Época: Sep 15, 2026, 02:28 UTC

1 51991C 22025AM  26258.10326389 -.00034201  00000+0 -10100-2 0  2584
2 51991  53.1575 253.0071 0001355  83.0393 248.8472 15.34422347    12

Sigue STARLINK-3652 en tiempo real con AllMySat

Download on the App Store